Regional Weather Roundup
Issued by NWS Newport/Morehead, NC

Current Version | Previous Version | Text Only | Print | Product List | Glossary Off
Versions: 1 2 3 4 5 6 7 8 9 10 11 12 13 14 15 16 17 18 19 20 21 22 23 24 25 26 27 28 29 30 31 32 33 34 35 36 37 38 39 40 41 42 43 44 45 46 47 48 49 50
000 ASUS42 KMHX 101524 RWRMHX WEATHER ROUNDUP FOR EASTERN NORTH CAROLINA NATIONAL WEATHER SERVICE NEWPORT/MOREHEAD CITY NC 1000 AM EST SAT DEC 10 2016 NOTE: "FAIR" INDICATES FEW OR NO CLOUDS BELOW 12,000 FEET WITH NO SIGNIFICANT WEATHER AND/OR OBSTRUCTIONS TO VISIBILITY NCZ015>017-031-032-045>047-102-103-101600- NORTH COAST CITY SKY/WX TMP DP RH WIND PRES REMARKS EDENTON SUNNY 37 22 56 CALM 30.56S ELIZABETH CITY SUNNY 36 21 54 N10 30.55S KITTY HAWK SUNNY 38 28 66 N6 30.52S MANTEO SUNNY 38 25 60 N7 30.54S $$ NCZ045>047-081-094-103-104-101600- CENTRAL COAST CITY SKY/WX TMP DP RH WIND PRES REMARKS FRISCO SUNNY 42 22 44 VRB6 30.53R $$ NCZ095-097-098-100-101-101600- SOUTHERN COAST CITY SKY/WX TMP DP RH WIND PRES REMARKS BEAUFORT SUNNY 40 29 64 NE6 30.55R CEDAR ISLAND NOT AVBL JACKSONVILLE SUNNY 35 18 49 N7 30.56R PINEY ISLAND SUNNY N/A N/A N/A N10 30.55R WILMINGTON SUNNY 36 20 52 NE8 30.57R $$ NCZ011>013-027>030-043-044-078>080-089-090>093-098-101600- COASTAL PLAIN CITY SKY/WX TMP DP RH WIND PRES REMARKS AHOSKIE SUNNY 31 17 56 N3 30.57S CLINTON SUNNY 35 20 54 N7 30.59S ELIZABETHTOWN SUNNY 34 20 57 N3 30.58S GOLDSBORO SUNNY 34 16 47 N6 30.56R GREENVILLE SUNNY 32 21 64 N5 30.57R HAVELOCK SUNNY 38 22 52 NE8 30.57R KENANSVILLE SUNNY 34 18 51 NE8 30.58S KINSTON SUNNY 34 19 55 CALM 30.58R NEW BERN SUNNY 34 21 59 NE7 30.57R RICHLANDS SUNNY 34 21 59 NE7 30.58R ROCKY MOUNT SUNNY 32 19 58 NW7 30.58R WASHINGTON SUNNY 35 19 51 N5 30.57R WHITEVILLE SUNNY 35 18 51 NE3 30.57S $$ AMZ130-135-150-152-154-156-158-170-250-252-270-ANZ085-086-088-633-658-670-101600- MARINE OBSERVATIONS STATION/POSITION TIME TEMP WIND PRES WAVE SWELL AIR SEA DIR/SP/G HT/PER HT/PER (UTC) (F) (DEG/KT/KT) (MB) (FT/S) (FT/S) CHESAPEAKE LIGHT NOT AVBL 64 E VA BEACH 1450 40 58 310/ 14/ 17 1032.8 4/ 6 3/ 6 DUCK 1500 36 51 340/ 10/ 13 1033.1 2 E DUCK NOT AVBL OREGON INLET 1500 37 49 300/ 8/ 11 1033.8 13E OREGON INLT NOT AVBL HATTERAS CG 1500 38 51 350/ 12/ 15 1033.2 DIAMOND BUOY 1450 43 77 360/ 12/ 16 1033.5 5/ 9 3/ 9 CAPE LOOKOUT 1500 38 360/ 9/ 11 1034.0 BEAUFORT LAB 1500 37 49 360/ 6/ 9 1033.3 30 SE NEW RVR IN 1508 42 69 10/ 6/ 12 1034.3 30 SE NEW RVR IN 1513 69 N/A 3/ 4 27 SE WRIGHTSVLE 1508 44 69 30/ 10/ 16 1034.0 5 SE WRIGHTSVLE 1508 37 60 30/ 12/ 19 1034.6 225 S CAPE HAT 1450 60 73 350/ 8/ 12 1030.1 5/ 9 5/ 9 41 SE CHARLESTON 1450 50 73 30/ 14/ 21 1033.3 3/ 6 2/ 7 $$

USA.gov is the U.S. government's official web portal to all federal, state and local government web resources and services.